User: anonymous   Login
Location: Buckeye Ditch
(40.9104°N, 122.9517°W)
Time: 13:22:16
(UTC+00:00)
Language:

ARIANE 5 R/B - Orbit

View from above orbital plane
View from above orbital plane
View from above satellite
View from above satellite

Ground track
Ground track

The orbit data is extracted from the following two-line orbital elements,

1 27387U 02009B   24171.94237776  .00000122  00000-0  57042-4 0  9995
2 27387  98.7976 162.1045 0033330 111.8097 248.6639 14.36403801168893
Epoch (UTC): 19 June 2024 22:37:01
Eccentricity: 0.0033330
inclination: 98.7976°
perigee height: 746 km
apogee height: 794 km
right ascension of ascending node: 162.1045°
argument of perigee: 111.8097°
revolutions per day: 14.36403801
mean anomaly at epoch: 248.6639°
orbit number at epoch: 16889

The dashed part of the orbit path shows where the satellite is in the earth's shadow,  

DLR